Starlink 11373

operational
NORAD ID: 61582 Int'l Des: 2024-187 Owner: SPXS Country: US Constellation: starlink
LEOCIRCULAR

Über Starlink 11373

Beschreibung wird geladen...

Live-Position

3D-Globus wird geladen...

Nächste Überflüge

Höhenverlauf

Altitude vs Time

uPlot chart will show altitude changes over time

Zweizeiliger Elementsatz

1 61582U 24187J 25259.79282299 -.00003060 00000-0 -20434-4 0 9993
2 61582 53.1586 73.8112 0000831 72.1051 288.0058 15.69689887 53435
Epoch: 16. Sept. 2025 • Age: 33 hours

Aktueller Status

Höhe 360.0 km
Geschwindigkeit 7.70 km/s
Subsatellitenpunkt 15.79°N, 179.36°W
Startdatum 18. Okt. 2024
Alter 0.9 years
Typ internet

Technische Details

Klassifizierung Payload
Masse 960.00 kg
Trockenmasse 910.00 kg
Gesamtmasse 960.00 kg
Länge 0.30 m
Durchmesser 4.10 m
Spannweite 29.00 m
Form Box + pan
Hersteller SPXS
Bus-Typ Starlink V2MD
Phasenstatus In Orbit
Besitzer/Staat SPXS/US

Große Konstellationen

Loading constellations...